Copper Harbor, MI

1:16 PM EDT on May 21, 2018 (GMT -0400)
Copper Harbor

Weather History for KP59 - June, 2014

Change the Weather History Date:

Monday, June 9, 2014

  Actual Average Record
Temperature  
Mean Temperature 53 °F -  
Max Temperature 63 °F 59 °F 80 °F (1999)
Min Temperature 44 °F 43 °F 41 °F (1998)
Degree Days  
Heating Degree Days 12    
Growing Degree Days 3 (Base 50)    
Moisture  
Dew Point 39 °F    
Average Humidity 63    
Maximum Humidity 80    
Minimum Humidity 38    
Precipitation  
Precipitation 0.00 in - - ()
Sea Level Pressure  
Sea Level Pressure 30.06 in    
Wind  
Wind Speed 3 mph (SW)    
Max Wind Speed 8 mph    
Max Gust Speed -    
Averages and records for this station are not official NWS values.
T = Trace of Precipitation, MM = Missing Value Source: NWS Daily Summary

Daily Weather History Graph

Daily Weather History Graph

Search for Another Location

Airport or City:

Astronomy

Jun. 09, 2014 Rise Set
Actual Time 5:54 AM EDT 9:47 PM EDT
Civil Twilight 5:14 AM EDT 10:27 PM EDT
Nautical Twilight 4:20 AM EDT 11:22 PM EDT
Astronomical Twilight 2:58 AM EDT 12:45 AM EDT
Moon 5:54 PM EDT (6/9) 3:38 AM EDT (6/9)
Length of Visible Light 17h 12m
Length of Day
15h 52m
Waxing Gibbous, 85% of the Moon is Illuminated
Jun 9
Waxing Gibbous
Jun 13
Full
Jun 19
Last Quarter
Jun 27
New
Jul 5
First Quarter

Hourly Weather History & Observations

Time (EDT) Temp. Dew Point Humidity Pressure Visibility Wind Dir Wind Speed Gust Speed Precip Events Conditions
12:51 AM 48.0 °F 39.9 °F 74% 30.09 in - West 4.6 mph - N/A   Unknown
1:51 AM 46.9 °F 41.0 °F 80% 30.09 in - West 3.5 mph - N/A   Unknown
2:51 AM 48.0 °F 37.9 °F 68% 30.08 in - Calm Calm - N/A   Unknown
3:51 AM 46.9 °F 39.9 °F 77% 30.09 in - Variable 3.5 mph - N/A   Unknown
4:51 AM 46.9 °F 41.0 °F 80% 30.07 in - South 3.5 mph - N/A   Unknown
5:51 AM 48.9 °F 37.9 °F 66% 30.07 in - Calm Calm - N/A   Unknown
6:51 AM 46.9 °F 37.9 °F 71% 30.09 in - WSW 6.9 mph - N/A   Unknown
7:51 AM 46.9 °F 36.0 °F 66% 30.11 in - Variable 3.5 mph - N/A   Unknown
8:51 AM 54.0 °F 37.9 °F 55% 30.10 in - Variable 4.6 mph - N/A   Unknown
9:51 AM 57.9 °F 39.0 °F 49% 30.09 in - Variable 5.8 mph - N/A   Unknown
10:51 AM 61.0 °F 36.0 °F 39% 30.07 in - SW 8.1 mph - N/A   Unknown
11:51 AM 61.0 °F 36.0 °F 39% 30.07 in - Variable 5.8 mph - N/A   Unknown
12:51 PM 62.1 °F 36.0 °F 38% 30.07 in - SW 6.9 mph - N/A   Unknown
2:51 PM 62.1 °F 39.9 °F 44% 30.04 in - Calm Calm - N/A   Unknown
3:51 PM 48.9 °F 37.0 °F 64% 30.06 in - Variable 3.5 mph - N/A   Unknown
4:51 PM 44.1 °F 37.9 °F 79% 30.06 in - Calm Calm - N/A   Unknown
5:51 PM 46.9 °F 37.9 °F 71% 30.05 in - Calm Calm - N/A   Unknown
6:51 PM 55.9 °F 41.0 °F 57% 30.04 in - Calm Calm - N/A   Unknown
7:51 PM 54.0 °F 43.0 °F 66% 30.03 in - Calm Calm - N/A   Unknown
8:51 PM 51.1 °F 42.1 °F 71% 30.02 in - Calm Calm - N/A   Unknown
9:51 PM 54.0 °F 44.1 °F 69% 30.02 in - Calm Calm - N/A   Unknown
10:51 PM 52.0 °F 41.0 °F 66% 30.03 in - Calm Calm - N/A   Unknown
11:51 PM 50.0 °F 39.9 °F 68% 30.03 in - Variable 3.5 mph - N/A   Unknown